Location: Cueva de Ratón
(10.1013°N, 67.6606°W)
Time: 10:18:47
(UTC+00:00)

Cosmos 1602 - Pass Details

Date: 02 December 2023
Orbit: 479 x 497 km, 82.5° (Epoch: 27 February)

Event Time Altitude Azimuth Distance (km) Brightness Sun altitude
Rises 22:50:40 0° 349° (N) 2,579 7.1 -10.8°
Reaches altitude 10° 22:52:47 10° 345° (NNW) 1,702 6.3 -11.3°
Maximum altitude 22:56:26 55° 267° (W) 607 4.4 -12.1°
Drops below altitude 10° 23:00:08 10° 188° (S) 1,715 6.7 -13.0°
Sets 23:02:17 0° 184° (S) 2,602 7.6 -13.5°
